Location: Bergnerzell
(49.1816°N, 10.2565°E)
Time: 23:04:21
(UTC+00:00)

NOSS 3-4 (C) - Pass Details

Date: 23 May 2024
Orbit: 814 x 1397 km, 63.4° (Epoch: 04 June)

Event Time Altitude Azimuth Distance (km) Brightness Sun altitude
Rises 00:34:07 0° 314° (NW) 3,795 6.9 -18.0°
Reaches altitude 10° 00:36:44 10° 308° (NW) 2,922 6.2 -17.9°
Maximum altitude 00:43:11 41° 241° (WSW) 1,660 4.3 -17.5°
Enters shadow 00:47:18 24° 188° (S) 2,345 4.9 -17.3°
